Regional Weather Roundup
Issued by NWS Albany, NY

Home | Current Version | Previous Version | Text Only | Print | Product List | Glossary On
Versions: 1 2 3 4 5 6 7 8 9 10 11 12 13 14 15 16 17 18 19 20 21 22 23 24 25 26 27 28 29 30 31 32 33 34 35 36 37 38 39 40 41 42 43 44 45 46 47 48 49 50
360
ASUS41 KALY 180110
RWRALY

NEW YORK STATE HOURLY WEATHER ROUNDUP
NATIONAL WEATHER SERVICE ALBANY NY
800 PM EST FRI NOV 17 2017

NOTE: "FAIR" INDICATES FEW OR NO CLOUDS BELOW 12,000 FEET WITH NO
SIGNIFICANT WEATHER AND/OR NO OBSTRUCTIONS TO VISIBILITY.

NYZ032-033-038>043-046>054-057>066-NYZ062>081-082-084-180200-
EAST


CITY           SKY/WX    TMP DP  RH WIND       PRES   REMARKS
ALBANY         PTCLDY    32  16  51 NW10      30.10F WCI  24
GLENS FALLS    CLEAR     30  15  53 NW5       30.07F WCI  25
POUGHKEEPSIE   CLEAR     29  19  66 N5        30.08S WCI  24
NEWBURGH       PTCLDY    32  19  59 W8        30.09R WCI  25
MONTGOMERY     CLEAR     34  17  50 SW3       30.07S
WHITE PLAINS   CLEAR     37  18  46 NW9       30.06R WCI  30
ISLIP          CLEAR     37  21  52 W7        30.06R WCI  32
NEW YORK CITY  PTCLDY    43  19  38 NW17      30.07F
CENTRAL PARK   CLEAR     42  15  33 VRB7      30.10S
$$

NYZ005>009-017-018-044>046-055-056-180200-
CENTRAL


CITY           SKY/WX    TMP DP  RH WIND       PRES   REMARKS
FULTON         CLOUDY    29  23  78 SE3       30.09F
SYRACUSE       PTCLDY    28  22  78 CALM      30.10F
ROME           CLEAR     28  20  71 CALM      30.10F
ELMIRA         CLOUDY    33  25  72 CALM      30.06F
BINGHAMTON     CLOUDY    28  17  63 E3        30.04F
MONTICELLO     CLEAR     29  18  63 W3        30.05F
$$

NYZ026>034-041>043-087-180200-
NORTH


CITY           SKY/WX    TMP DP  RH WIND       PRES   REMARKS
WATERTOWN      CLOUDY    28  22  78 S5        30.08F WCI  23
FORT DRUM      NOT AVBL
OGDENSBURG     FAIR      21  19  91 CALM      30.09F
MASSENA        CLEAR     22  17  81 CALM      30.12S
SARANAC LAKE   CLEAR     14  12  92 CALM      30.02F
PLATTSBURGH    CLEAR     27  12  53 W3        30.09S
$$

NYZ001>004-010>016-019>021-085-180200-
WEST


CITY           SKY/WX    TMP DP  RH WIND       PRES   REMARKS
NIAGARA FALLS  CLOUDY    34  25  69 E8        30.01F WCI  27
BUFFALO        CLOUDY    34  26  72 SE8       30.01F WCI  27
DUNKIRK        CLOUDY    34  29  82 CALM      30.01F
JAMESTOWN      CLOUDY    33  26  75 S13       30.00F WCI  24
WELLSVILLE     CLOUDY    34  22  61 S5        30.02F WCI  30
ROCHESTER      CLOUDY    34  25  69 SE6       30.06F WCI  29
PENN YAN       CLOUDY    33  22  63 SE5       30.06F WCI  29
$$

             KEY
       WCI = WIND CHILL INDEX
       VSB = VISIBILITY
       HX  = HEAT INDEX
$$




USA.gov is the U.S. government's official web portal to all federal, state and local government web resources and services.